| time (UTC) | temp F | wind direction | speed MPH | gust MPH | rain 1hr in | rain 24hr in | rain mn in | humidity % | barometer mb |
| 20260505024535 | 64 | 133 | 0.0 | 2.0 | 0.00 | 0.00 | 0.00 | 81 | 1007.1 |
| 20260505023035 | 65 | 133 | 0.0 | 3.0 | 0.00 | 0.00 | 0.00 | 79 | 1007.5 |
| 20260505021534 | 66 | 153 | 1.0 | 3.0 | 0.00 | 0.00 | 0.00 | 75 | 1006.8 |
| 20260505020033 | 68 | 167 | 0.0 | 3.0 | 0.00 | 0.00 | 0.00 | 73 | 1006.6 |
| 20260505014532 | 68 | 165 | 0.0 | 2.0 | 0.00 | 0.00 | 0.00 | 71 | 1006.5 |
| 20260505013031 | 69 | 157 | 0.0 | 2.0 | 0.00 | 0.00 | 0.00 | 69 | 1006.2 |
| 20260505011530 | 71 | 151 | 0.0 | 2.0 | 0.00 | 0.00 | 0.00 | 66 | 1006.0 |
| 20260505010029 | 71 | 178 | 1.0 | 3.0 | 0.00 | 0.00 | 0.00 | 65 | 1006.0 |
| 20260505004533 | 72 | 175 | 1.0 | 5.0 | 0.00 | 0.00 | 0.00 | 63 | 1005.9 |
| 20260505003028 | 73 | 166 | 1.0 | 4.0 | 0.00 | 0.00 | 0.00 | 62 | 1005.9 |
| 20260505001528 | 74 | 117 | 1.0 | 8.0 | 0.00 | 0.00 | 0.00 | 60 | 1005.8 |
| 20260505000029 | 76 | 219 | 3.0 | 10.0 | 0.00 | 0.00 | 0.00 | 57 | 1005.7 |
| 20260504234526 | 76 | 218 | 3.0 | 18.0 | 0.00 | 0.00 | 0.00 | 56 | 1005.9 |
| 20260504233025 | 77 | 175 | 3.0 | 15.0 | 0.00 | 0.00 | 0.00 | 55 | 1005.9 |
| 20260504231524 | 78 | 182 | 4.0 | 15.0 | 0.00 | 0.00 | 0.00 | 54 | 1006.1 |
| 20260504230027 | 78 | 170 | 4.0 | 14.0 | 0.00 | 0.00 | 0.00 | 53 | 1006.1 |
| 20260504224522 | 78 | 226 | 2.0 | 14.0 | 0.00 | 0.00 | 0.00 | 54 | 1006.2 |
| 20260504223022 | 79 | 169 | 5.0 | 20.0 | 0.00 | 0.00 | 0.00 | 53 | 1006.1 |
| 20260504221524 | 79 | 213 | 4.0 | 16.0 | 0.00 | 0.00 | 0.00 | 52 | 1006.2 |
| 20260504220124 | 80 | 221 | 7.0 | 14.0 | 0.00 | 0.00 | 0.00 | 50 | 1006.3 |
| 20260504214518 | 79 | 175 | 6.0 | 19.0 | 0.00 | 0.00 | 0.00 | 53 | 1006.3 |
| 20260504213018 | 79 | 127 | 5.0 | 21.0 | 0.00 | 0.00 | 0.00 | 52 | 1006.4 |
| 20260504211517 | 79 | 284 | 8.0 | 20.0 | 0.00 | 0.00 | 0.00 | 52 | 1006.6 |
| 20260504210018 | 80 | 196 | 6.0 | 12.0 | 0.00 | 0.00 | 0.00 | 51 | 1006.7 |
| 20260504204514 | 79 | 232 | 7.0 | 21.0 | 0.00 | 0.00 | 0.00 | 51 | 1006.8 |
| 20260504203014 | 80 | 151 | 9.0 | 19.0 | 0.00 | 0.00 | 0.00 | 50 | 1007.0 |
| 20260504201510 | 80 | 150 | 5.0 | 17.0 | 0.00 | 0.00 | 0.00 | 51 | 1007.3 |
| 20260504200014 | 80 | 149 | 4.0 | 19.0 | 0.00 | 0.00 | 0.00 | 51 | 1007.5 |
| 20260504194506 | 80 | 146 | 8.0 | 17.0 | 0.00 | 0.00 | 0.00 | 50 | 1007.7 |
| 20260504193002 | 79 | 192 | 4.0 | 14.0 | 0.00 | 0.00 | 0.00 | 52 | 1007.9 |
| 20260504191506 | 79 | 178 | 6.0 | 19.0 | 0.00 | 0.00 | 0.00 | 52 | 1008.1 |
| 20260504190111 | 79 | 245 | 6.0 | 20.0 | 0.00 | 0.00 | 0.00 | 51 | 1008.2 |
| 20260504184615 | 79 | 126 | 6.0 | 19.0 | 0.00 | 0.00 | 0.00 | 53 | 1008.1 |
| 20260504183101 | 79 | 200 | 6.0 | 20.0 | 0.00 | 0.00 | 0.00 | 53 | 1008.5 |
| 20260504181555 | 78 | 168 | 5.0 | 19.0 | 0.00 | 0.00 | 0.00 | 52 | 1008.4 |
| 20260504180053 | 77 | 217 | 6.0 | 18.0 | 0.00 | 0.00 | 0.00 | 53 | 1008.6 |
| 20260504174552 | 77 | 221 | 7.0 | 18.0 | 0.00 | 0.00 | 0.00 | 53 | 1008.8 |
| 20260504173055 | 77 | 252 | 4.0 | 20.0 | 0.00 | 0.00 | 0.00 | 52 | 1008.9 |
| 20260504171547 | 77 | 263 | 9.0 | 19.0 | 0.00 | 0.00 | 0.00 | 52 | 1009.1 |
| 20260504081526 | 55 | 211 | 2.0 | 8.0 | 0.00 | 0.00 | 0.00 | 93 | 1010.9 |
| 20260504044604 | 57 | 160 | 0.0 | 1.0 | 0.00 | 0.00 | 0.00 | 86 | 1012.5 |
| 20260504043102 | 57 | 160 | 0.0 | 1.0 | 0.00 | 0.00 | 0.00 | 85 | 1012.7 |
| 20260504041558 | 58 | 160 | 0.0 | 1.0 | 0.00 | 0.00 | 0.00 | 85 | 1012.8 |
| 20260504040105 | 59 | 159 | 0.0 | 2.0 | 0.00 | 0.00 | 0.00 | 84 | 1012.9 |
| 20260504034608 | 59 | 200 | 0.0 | 3.0 | 0.00 | 0.00 | 0.00 | 83 | 1013.1 |
| 20260504033127 | 59 | 202 | 0.0 | 3.0 | 0.00 | 0.00 | 0.00 | 83 | 1013.2 |
| 20260504031601 | 59 | 220 | 1.0 | 5.0 | 0.00 | 0.00 | 0.00 | 82 | 1013.1 |
| 20260504030101 | 60 | 214 | 0.0 | 3.0 | 0.00 | 0.00 | 0.00 | 81 | 1013.1 |